{"data":{"norad_id":58355,"epoch":"2026-05-25T02:03:42.421824Z","epoch_age_seconds":64051,"freshness":"FRESH","line1":"1 58355U 23177E   26145.08590766 -.00000569  00000+0 -11147-4 0  9994","line2":"2 58355  43.0054 278.9578 0001865 265.1293  94.9346 15.27579919139911","mean_motion":15.27579919,"eccentricity":0.0001865,"inclination_deg":43.0054,"raan_deg":278.9578,"arg_perigee_deg":265.1293,"mean_anomaly_deg":94.9346,"bstar":-1.1147e-5,"rev_number":13991,"period_min":94.266753712151,"perigee_km":481.76972733066,"apogee_km":484.32894983495,"semimajor_km":6861.1863385828,"source":"CELESTRAK","updated_at":"2026-05-25T13:38:18.584934Z"}}